User: anonymous   Login
Location: Br�ttisellen
(47.4227°N, 8.6287°E)
Time: 13:52:05
(UTC+00:00)
Language:

Cosmos 1408 - Orbit

View from above orbital plane
View from above orbital plane
View from above satellite
View from above satellite

Ground track
Ground track

The orbit data is extracted from the following two-line orbital elements,

1 13552U 82092A   20192.20973083  .00000538  00000-0  18324-4 0  9991
2 13552  82.5673 255.5559 0019331  57.2303 303.0796 15.27852183 67858
Epoch (UTC): 10 July 2020 05:02:00
Eccentricity: 0.0019331
inclination: 82.5673°
perigee height: 469 km
apogee height: 495 km
right ascension of ascending node: 255.5559°
argument of perigee: 57.2303°
revolutions per day: 15.27852183
mean anomaly at epoch: 303.0796°
orbit number at epoch: 6785

The dashed part of the orbit path shows where the satellite is in the earth's shadow,  

DLR